Ravenna, OH

9:44 AM EST on November 19, 2017 (GMT -0500)
Ravenna

Weather History for KPOV - January, 2014

Change the Weather History Date:

Wednesday, January 29, 2014

  Actual Average (KCAK) Record (KCAK)
Temperature  
Mean Temperature 6 °F -  
Max Temperature 16 °F 33 °F 64 °F (1975)
Min Temperature -5 °F 18 °F -13 °F (1977)
Degree Days  
Heating Degree Days 60    
Moisture  
Dew Point -7 °F    
Average Humidity 56    
Maximum Humidity 73    
Minimum Humidity 38    
Precipitation  
Precipitation 0.00 in - - ()
Sea Level Pressure  
Sea Level Pressure 30.17 in    
Wind  
Wind Speed 8 mph (WSW)    
Max Wind Speed 17 mph    
Max Gust Speed 25 mph    
Visibility 10 miles    
Events      
Averages and records for this station are not official NWS values.
T = Trace of Precipitation, MM = Missing Value Source: NWS Daily Summary

Daily Weather History Graph

Daily Weather History Graph

Search for Another Location

Airport or City:

Trip Planner

Search our weather history database for the weather conditions in past years. The results will help you decide how hot, cold, wet, or windy it might be!

Date:

Astronomy

Jan. 29, 2014 Rise Set
Actual Time 7:38 AM EST 5:37 PM EST
Civil Twilight 7:09 AM EST 6:07 PM EST
Nautical Twilight 6:36 AM EST 6:40 PM EST
Astronomical Twilight 6:03 AM EST 7:13 PM EST
Moon 6:14 AM EST (1/29) 4:35 PM EST (1/29)
Length of Visible Light 10h 57m
Length of Day
9h 59m
Waning Crescent, 2% of the Moon is Illuminated
Jan 29
Waning Crescent
Jan 30
New
Feb 6
First Quarter
Feb 14
Full
Feb 22
Last Quarter

Hourly Weather History & Observations

Time (EST) Temp. Windchill Dew Point Humidity Pressure Visibility Wind Dir Wind Speed Gust Speed Precip Events Conditions
12:16 AM -1.8 °F -17.5 °F -14.3 °F 56% 30.20 in 10.0 mi WSW 9.2 mph - N/A   Clear
12:35 AM -1.8 °F -16.4 °F -14.1 °F 56% 30.19 in 10.0 mi WSW 8.1 mph - N/A   Clear
12:56 AM -2.0 °F -15.4 °F -13.7 °F 58% 30.19 in 10.0 mi WSW 6.9 mph - N/A   Clear
1:16 AM -1.8 °F -13.7 °F -13.4 °F 58% 30.19 in 10.0 mi SW 5.8 mph - N/A   Clear
1:36 AM -2.2 °F -15.6 °F -13.2 °F 60% 30.19 in 10.0 mi WSW 6.9 mph - N/A   Clear
1:55 AM -2.4 °F -14.4 °F -13.0 °F 61% 30.18 in 10.0 mi WSW 5.8 mph - N/A   Clear
2:16 AM -2.7 °F -16.2 °F -13.0 °F 62% 30.18 in 10.0 mi West 6.9 mph - N/A   Clear
2:35 AM -3.1 °F -16.7 °F -13.0 °F 63% 30.17 in 10.0 mi WSW 6.9 mph - N/A   Clear
2:55 AM -3.3 °F -15.4 °F -13.0 °F 63% 30.18 in 10.0 mi WSW 5.8 mph - N/A   Clear
3:16 AM -4.4 °F -15.0 °F -13.4 °F 65% 30.18 in 10.0 mi SW 4.6 mph - N/A   Clear
3:35 AM -4.4 °F -16.7 °F -13.2 °F 66% 30.17 in 10.0 mi SW 5.8 mph - N/A   Clear
3:55 AM -4.9 °F -17.4 °F -13.2 °F 68% 30.16 in 10.0 mi SW 5.8 mph - N/A   Clear
4:15 AM -5.1 °F -15.8 °F -13.2 °F 68% 30.15 in 10.0 mi SW 4.6 mph - N/A   Clear
4:35 AM -4.9 °F -17.4 °F -12.6 °F 69% 30.15 in 10.0 mi WSW 5.8 mph - N/A   Clear
4:55 AM -5.1 °F -17.6 °F -12.5 °F 70% 30.15 in 10.0 mi WSW 5.8 mph - N/A   Clear
5:15 AM -4.2 °F -18.0 °F -11.4 °F 71% 30.15 in 10.0 mi WSW 6.9 mph - N/A   Clear
5:35 AM -3.5 °F -18.4 °F -10.5 °F 72% 30.14 in 10.0 mi SW 8.1 mph - N/A   Clear
5:56 AM -2.7 °F -16.2 °F -9.6 °F 73% 30.14 in 10.0 mi WSW 6.9 mph - N/A   Clear
6:16 AM -2.4 °F -17.1 °F -9.4 °F 72% 30.14 in 10.0 mi WSW 8.1 mph - N/A   Clear
6:35 AM -1.7 °F -13.5 °F -8.9 °F 71% 30.14 in 10.0 mi WSW 5.8 mph - N/A   Clear
6:56 AM -1.7 °F -13.5 °F -8.5 °F 73% 30.14 in 10.0 mi SW 5.8 mph - N/A   Clear
7:16 AM -1.7 °F -11.8 °F -8.5 °F 73% 30.14 in 10.0 mi SW 4.6 mph - N/A   Clear
7:35 AM -1.8 °F -13.7 °F -8.9 °F 72% 30.14 in 10.0 mi SW 5.8 mph - N/A   Clear
7:55 AM -2.4 °F -12.7 °F -9.2 °F 73% 30.14 in 10.0 mi SW 4.6 mph - N/A   Clear
8:16 AM -2.0 °F -12.2 °F -9.2 °F 71% 30.14 in 10.0 mi SW 4.6 mph - N/A   Clear
8:35 AM -0.9 °F -12.7 °F -8.7 °F 70% 30.15 in 10.0 mi SW 5.8 mph - N/A   Clear
8:56 AM 0.5 °F -11.0 °F -8.1 °F 67% 30.15 in 10.0 mi SSW 5.8 mph - N/A   Clear
9:16 AM 2.3 °F -10.2 °F -7.8 °F 63% 30.15 in 10.0 mi SW 6.9 mph - N/A   Clear
9:35 AM 4.1 °F -11.1 °F -7.4 °F 59% 30.15 in 10.0 mi WSW 10.4 mph - N/A   Clear
9:56 AM 5.2 °F -8.9 °F -7.1 °F 57% 30.16 in 10.0 mi WSW 9.2 mph 17.3 mph N/A   Clear
10:16 AM 6.3 °F -12.0 °F -6.7 °F 55% 30.16 in 10.0 mi WSW 16.1 mph - N/A   Clear
10:35 AM 7.3 °F -6.2 °F -6.2 °F 54% 30.17 in 10.0 mi SW 9.2 mph - N/A   Clear
10:55 AM 8.2 °F -7.5 °F -6.3 °F 52% 30.17 in 10.0 mi WSW 12.7 mph 19.6 mph N/A   Clear
11:16 AM 9.1 °F -4.9 °F -5.6 °F 51% 30.17 in 10.0 mi WSW 10.4 mph 20.7 mph N/A   Clear
11:35 AM 9.9 °F -3.1 °F -5.4 °F 50% 30.17 in 10.0 mi WSW 9.2 mph - N/A   Clear
11:55 AM 10.4 °F -4.1 °F -5.3 °F 49% 30.17 in 10.0 mi WSW 11.5 mph 17.3 mph N/A   Clear
12:15 PM 11.3 °F -5.5 °F -4.7 °F 49% 30.16 in 10.0 mi WSW 16.1 mph 21.9 mph N/A   Clear
12:35 PM 12.2 °F -4.3 °F -4.9 °F 46% 30.15 in 10.0 mi WSW 16.1 mph 20.7 mph N/A   Clear
12:56 PM 13.1 °F -1.4 °F -4.4 °F 46% 30.15 in 10.0 mi SW 12.7 mph 23.0 mph N/A   Clear
1:16 PM 14.0 °F -0.2 °F -4.2 °F 44% 30.14 in 10.0 mi WSW 12.7 mph 19.6 mph N/A   Clear
1:35 PM 15.3 °F 0.8 °F -5.3 °F 40% 30.13 in 10.0 mi WSW 13.8 mph 23.0 mph N/A   Clear
1:55 PM 15.4 °F -0.6 °F -6.0 °F 38% 30.13 in 10.0 mi WSW 17.3 mph 24.2 mph N/A   Clear
2:16 PM 15.4 °F -0.1 °F -6.3 °F 38% 30.13 in 10.0 mi WSW 16.1 mph 25.3 mph N/A   Clear
2:35 PM 15.8 °F -0.2 °F -6.0 °F 38% 30.14 in 10.0 mi WSW 17.3 mph 24.2 mph N/A   Clear
2:55 PM 16.2 °F 1.9 °F -5.1 °F 39% 30.14 in 10.0 mi West 13.8 mph 25.3 mph N/A   Clear
3:16 PM 15.8 °F 0.9 °F -5.4 °F 39% 30.14 in 10.0 mi WSW 15.0 mph 24.2 mph N/A   Clear
3:35 PM 16.0 °F 1.1 °F -5.1 °F 39% 30.14 in 10.0 mi WSW 15.0 mph 21.9 mph N/A   Clear
3:56 PM 15.6 °F 1.2 °F -4.9 °F 40% 30.15 in 10.0 mi WSW 13.8 mph 21.9 mph N/A   Clear
4:16 PM 15.8 °F 2.1 °F -4.9 °F 40% 30.16 in 10.0 mi SW 12.7 mph 18.4 mph N/A   Clear
4:35 PM 15.3 °F 0.8 °F -4.5 °F 41% 30.17 in 10.0 mi WSW 13.8 mph 20.7 mph N/A   Clear
4:56 PM 14.9 °F 0.3 °F -4.2 °F 43% 30.17 in 10.0 mi WSW 13.8 mph 21.9 mph N/A   Clear
5:16 PM 14.2 °F -2.3 °F -4.2 °F 44% 30.16 in 10.0 mi WSW 17.3 mph 23.0 mph N/A   Clear
5:35 PM 13.8 °F 1.8 °F -4.0 °F 45% 30.17 in 10.0 mi WSW 9.2 mph - N/A   Clear
5:55 PM 13.5 °F 0.5 °F -4.0 °F 46% 30.19 in 10.0 mi SW 10.4 mph - N/A   Clear
6:16 PM 13.3 °F -0.5 °F -4.0 °F 46% 30.19 in 10.0 mi WSW 11.5 mph 20.7 mph N/A   Clear
6:35 PM 13.1 °F 1.8 °F -4.0 °F 47% 30.20 in 10.0 mi WSW 8.1 mph 16.1 mph N/A   Clear
6:55 PM 12.2 °F -0.2 °F -3.6 °F 49% 30.21 in 10.0 mi WSW 9.2 mph - N/A   Clear
7:16 PM 12.0 °F -0.4 °F -3.6 °F 50% 30.22 in 10.0 mi WSW 9.2 mph - N/A   Clear
7:35 PM 12.0 °F 2.7 °F -3.5 °F 50% 30.22 in 10.0 mi WSW 5.8 mph - N/A   Clear
7:55 PM 11.5 °F -0.2 °F -3.5 °F 51% 30.22 in 10.0 mi SW 8.1 mph - N/A   Clear
8:16 PM 11.3 °F -0.4 °F -3.5 °F 52% 30.22 in 10.0 mi SW 8.1 mph - N/A   Clear
8:35 PM 11.1 °F 0.4 °F -3.3 °F 52% 30.22 in 10.0 mi SW 6.9 mph - N/A   Clear
8:56 PM 10.8 °F 2.7 °F -3.3 °F 53% 30.22 in 10.0 mi SW 4.6 mph - N/A   Clear
9:16 PM 10.4 °F 2.2 °F -3.1 °F 55% 30.23 in 10.0 mi SW 4.6 mph - N/A   Clear
9:35 PM 10.4 °F 2.2 °F -2.9 °F 55% 30.23 in 10.0 mi SW 4.6 mph - N/A   Clear
9:55 PM 10.0 °F 1.8 °F -2.9 °F 56% 30.23 in 10.0 mi WSW 4.6 mph - N/A   Clear
10:16 PM 9.3 °F 1.0 °F -2.6 °F 59% 30.24 in 10.0 mi SW 4.6 mph - N/A   Clear
10:35 PM 9.3 °F 2.8 °F -2.7 °F 58% 30.24 in 10.0 mi SSW 3.5 mph - N/A   Clear
10:55 PM 9.0 °F - -2.4 °F 60% 30.24 in 10.0 mi Calm Calm - N/A   Clear
11:16 PM 8.4 °F - -2.2 °F 62% 30.24 in 10.0 mi Calm Calm - N/A   Clear
11:35 PM 7.2 °F - -2.4 °F 65% 30.23 in 10.0 mi Calm Calm - N/A   Clear
11:56 PM 7.7 °F - -2.4 °F 63% 30.23 in 10.0 mi Calm Calm - N/A   Clear